Regional Weather Roundup
Issued by NWS State College, PA

Home | Current Version | Previous Version | Graphics & Text | Print | Product List | Glossary On
Versions: 1 2 3 4 5 6 7 8 9 10 11 12 13 14 15 16 17 18 19 20 21 22 23 24 25 26 27 28 29 30 31 32 33 34 35 36 37 38 39 40 41 42 43 44 45 46 47 48 49 50
000
ASUS41 KCTP 061903
RWRCTP

REGIONAL WEATHER ROUNDUP
NATIONAL WEATHER SERVICE STATE COLLEGE PA
300 PM EDT MON JUL 06 2015

Note: "fair" indicates few or no clouds below 12,000 feet with no
significant weather and/or obstructions to visibility.

* = STATION THAT DOES NOT REPORT PRECIPITATION /E.G. RAIN...SNOW...ETC/
    THUNDER OR FOG.

PAZ002>004-007>009-013>016-020>023-029>032-062000-
WESTERN PENNSYLVANIA

CITY           SKY/WX    TMP DP  RH WIND       PRES   REMARKS
ERIE           MOSUNNY   78  64  61 N6        30.03F
MEADVILLE      CLOUDY    78  64  61 SE3       30.05F
FRANKLIN*      CLOUDY    72  66  83 E7        30.09S
NEW CASTLE     FAIR      76  70  82 CALM      30.05F
BEAVER COUNTY  MOSUNNY   73  68  83 SE6       30.06F
BUTLER*        CLOUDY    73  70  88 NE5       30.09F
PITTSBURGH INT CLOUDY    75  70  84 CALM      30.06F
PITTSBURGH     CLOUDY    77  65  66 S5        30.06S
INDIANA*       PTSUNNY   72  70  94 CALM      30.13S
LATROBE        PTSUNNY   72  72 100 CALM      30.08F
WASHINGTON CO* NOT AVBL
$$

PAZ004>006-010>012-017>019-024>028-033>037-041-042-045-046-049>053-062000-
CENTRAL PENNSYLVANIA

CITY           SKY/WX    TMP DP  RH WIND       PRES   REMARKS
BRADFORD       LGT RAIN  71  67  87 SE8G17    30.13S
DUBOIS         LGT RAIN  74  68  81 CALM      30.11R
CLEARFIELD     CLOUDY    76  66  71 VRB5      30.11F
JOHNSTOWN      PTSUNNY   73  67  81 E7        30.11F
ALTOONA        CLOUDY    74  68  81 E5        30.11F
STATE COLLEGE  PTSUNNY   77  68  73 CALM      30.10F
WILLIAMSPORT   PTSUNNY   79  70  74 E9        30.08F
SELINSGROVE    PTSUNNY   82  69  64 S7        30.09F
FT INDIANTOWN  MOSUNNY   82  69  66 SE7       30.09F
CAPITAL CITY   PTSUNNY   80  68  66 E9        30.07F
HARRISBURG     PTSUNNY   80  69  69 SE8       30.07F
YORK           PTSUNNY   82  71  69 S7        30.07F
$$

PAZ038>040-043-044-047-048-054-055-060>062-067>071-062000-
EASTERN PENNSYLVANIA

CITY           SKY/WX    TMP DP  RH WIND       PRES   REMARKS
SCRANTON       PTSUNNY   85  65  51 VRB3      30.12F
MOUNT POCONO   CLOUDY    76  63  64 SE10      30.19S
ALLENTOWN      CLOUDY    83  68  60 SE6       30.11F
QUAKERTOWN*    MOCLDY    82  70  65 SE7       30.13F
READING        PTSUNNY   84  69  60 S10G17    30.09F
LANCASTER      PTSUNNY   80  70  71 SE7       30.09F
COATESVILLE    CLOUDY    81  72  74 SE5       30.12F
POTTSTOWN      PTSUNNY   83  71  67 VRB5      30.12F
BLUE BELL      PTSUNNY   86  72  62 S5        30.10F
DOYLESTOWN     PTSUNNY   80  70  71 MISG      30.11F
WILLOW GROVE   NOT AVBL
NORTH PHILA    PTSUNNY   84  69  60 SE10      30.11F
PHILADELPHIA   PTSUNNY   85  70  60 S8        30.10F
$$



USA.gov is the U.S. government's official web portal to all federal, state and local government web resources and services.